This demonstration page uses our WeatherBlox Daily Observations layout. Learn more.

Left ArrowRight Arrow

38.20091, -84.87328

Hourly Observations for August 16, 2019

Temp ( °F °C ) Dew Point ( °F °C ) Humidity (%) Winds ( mph kmh ) Pressure ( in mb ) Visibility ( mi km ) Precip ( " mm )
12:53 am 00:53 Clear 68 20 62 16.7 81 81 Calm 29.96 1015 10 16 0.00 0.00
1:53 am 01:53 Clear 66 18.9 62 16.7 87 87 Calm 29.98 1015 10 16 0.00 0.00
2:53 am 02:53 Clear 65 18.3 62 16.7 90 90 Calm 29.97 1015 10 16 0.00 0.00
3:53 am 03:53 Clear 63 17.2 61 16.1 93 93 SW 3 6 29.97 1015 10 16 0.00 0.00
4:53 am 04:53 Clear 63 17.2 60 15.6 90 90 Calm 29.97 1015 10 16 0.00 0.00
5:53 am 05:53 Mostly Clear 63 17.2 61 16.1 93 93 Calm 29.98 1015 10 16 0.00 0.00
6:53 am 06:53 Mostly Clear 63 17.2 60 15.6 90 90 Calm 29.99 1016 10 16 0.00 0.00
7:53 am 07:53 Sunny 65 18.3 63 17.2 93 93 Calm 29.99 1016 8 13 0.00 0.00
8:53 am 08:53 Sunny 70 21.1 65 18.3 84 84 Calm 30.00 1016 10 16 0.00 0.00
9:53 am 09:53 Sunny 76 24.4 66 18.9 72 72 SSW 3 6 30.01 1016 10 16 0.00 0.00
10:53 am 10:53 Sunny 80 26.7 66 18.9 62 62 S 5 7 30.00 1016 10 16 0.00 0.00
11:53 am 11:53 Sunny 82 27.8 63 17.2 53 53 VRB 3 6 30.01 1016 10 16 0.00 0.00
12:53 pm 12:53 Mostly Sunny 84 28.9 62 16.7 48 48 undefined N/A 30.01 1016 10 16 0.00 0.00
1:53 pm 13:53 Sunny 85 29.4 61 16.1 45 45 VRB 3 6 30.00 1016 10 16 0.00 0.00
2:53 pm 14:53 Sunny 88 31.1 61 16.1 40 40 VRB 3 6 29.98 1015 10 16 0.00 0.00
3:53 pm 15:53 Sunny 88 31.1 62 16.7 42 42 Calm 29.96 1015 10 16 0.00 0.00
4:53 pm 16:53 Mostly Sunny 89 31.7 62 16.7 41 41 Calm 29.94 1014 10 16 0.00 0.00
5:53 pm 17:53 Sunny 89 31.7 63 17.2 42 42 WSW 6 9 29.93 1014 10 16 0.00 0.00
6:53 pm 18:53 Sunny 87 30.6 63 17.2 45 45 SW 6 9 29.92 1013 10 16 0.00 0.00
7:53 pm 19:53 Sunny 85 29.4 63 17.2 48 48 WSW 5 7 29.93 1013 10 16 0.00 0.00
8:53 pm 20:53 Clear 79 26.1 66 18.9 65 65 Calm 29.93 1014 10 16 0.00 0.00
9:53 pm 21:53 Clear 78 25.6 65 18.3 64 64 WSW 3 6 29.94 1014 10 16 0.00 0.00
10:53 pm 22:53 Clear 75 23.9 66 18.9 74 74 Calm 29.95 1014 10 16 0.00 0.00
11:53 pm 23:53 Clear 73 22.8 66 18.9 79 79 Calm 29.95 1014 10 16 0.00 0.00

Powered by AerisWeather